FENGYUN 1C DEB, 32332

Orbit data source: Space-Track

FENGYUN 1C DEB, 32332 is space debris in SSO originally from a launch on Mon, 10 May 1999 UTC launched from the Taiyaun Space Center, China (TSC). Fengyun 1C debris stems from the Chinese weather satellite Fengyun-1C, which was intentionally destroyed by a Chinese anti-satellite missile in 2007. This event dramatically increased the amount of space debris, with thousands of trackable fragments posing hazards to satellites and human spaceflight. The Fengyun 1C debris cloud has become a focal point in discussions about space sustainability and the need for international regulations to prevent the creation of new debris.

Loading next visibility...
Identifier
32332, 1999-025CXZ
Orbit
SSO
Country
Flag of CNCN / PRC
Related business
Manufacturer
Unknown
Mission
Spacecraft
Bus & Motor
Unknown
Mass
Unknown
Launch date (UTC)
1999-05-10 (27 years ago)
Launch vehicle
Unknown
Launch site
Taiyaun Space Center, China (TSC)
Object type
Payload
Rocket body
Debris
Shape & HBR
Unknown shape, 0.1 m
Radar Cross Section
Small (<0.1 m²)

Expand to show TLE details & history
Last TLE update: 4 days ago

TLE from 4 days ago
0 FENGYUN 1C DEB
1 32332U 99025CXZ 26058.91573977  .00001969  00000-0  99844-3 0  9999
2 32332  99.1122 117.5721 0289762 101.6873 261.6955 13.97605890941144
Epoch: 2026-02-27T21:58Z
TLE epoch observation values (Epoch: 2026-02-27T21:58:39.916Z)
Latitude
-0.00001°
Longitude
-9.83957°
Altitude
941.393 km
Speed
7.363 km/s
True Right ascension
07h 50m 17s
True Declination
0° 00' 00"
Sunlit
Object was in full shadow at epoch
Visualization orbit readout
Latitude
Unknown
Longitude
Unknown
Altitude
Unknown
Speed
Unknown
Apparent Right ascension
Unknown
Apparent Declination
Unknown
Sunlit
N/A
Visualization observer readout
Local Sidereal Time
12:35:58
Azimuth
Unknown
Elevation
Unknown
Doppler factor
Unknown
Orbital elements
Apogee altitude
1,110.174 km
Perigee altitude
688.429 km
Semi-major axis
7,277.439 km
Eccentricity
0.02898
Inclination
99.1122°
RAAN
117.5721°
Arg. of periapsis
101.6873°
True anomaly
258.42876°
Mean anomaly
261.6955°
Eccentric anomaly
260.06021°
Mean motion
3.49603 °/min
Orbital period
102.97 mins
BSTAR
0.00099844
Loading maneuver chart data...
Computing Atmospheric mass density...
Loading historical data...
Loading historical data...
Loading historical data...
Loading historical data...
Loading historical data...
Loading historical data...
Loading historical data...

Documentation

Showing up to 5 results
|